This is the latest recevied weather packets stored in our database for station/object W0DXV. If no packets are shown the sender has not sent any weather packets the latest 10 day(s).
| Time | Temp. | Humidity | Pressure | Rain* | Wind** | Luminosity | Snow |
|---|---|---|---|---|---|---|---|
| 1778013406 | 26.67° C | 38% | 1009.7 hPa | 0 mm | - | 412 W/m² | - |
| 1778013103 | 27.22° C | 35% | 1009.6 hPa | 0 mm | - | 407 W/m² | - |
| 1778012798 | 27.22° C | 37% | 1010 hPa | 0 mm | - | 285 W/m² | - |
| 1778012495 | 26.67° C | 38% | 1010 hPa | 0 mm | - | 413 W/m² | - |
| 1778012192 | 26.11° C | 38% | 1009.9 hPa | 0 mm | - | 492 W/m² | - |
| 1778011890 | 26.11° C | 37% | 1010 hPa | 0 mm | - | 421 W/m² | - |
| 1778011587 | 26.11° C | 37% | 1009.9 hPa | 0 mm | - | 555 W/m² | - |
| 1778011283 | 26.67° C | 37% | 1010 hPa | 0 mm | - | 505 W/m² | - |
| 1778010974 | 27.78° C | 36% | 1010.1 hPa | 0 mm | - | 570 W/m² | - |
| 1778010672 | 26.67° C | 36% | 1010.2 hPa | 0 mm | - | 574 W/m² | - |
| 1778010368 | 26.67° C | 35% | 1010.2 hPa | 0 mm | - | 548 W/m² | - |
| 1778010064 | 27.22° C | 37% | 1010.2 hPa | 0 mm | - | 652 W/m² | - |
| 1778009761 | 27.22° C | 36% | 1010.3 hPa | 0 mm | - | 372 W/m² | - |
| 1778009458 | 27.22° C | 36% | 1010.4 hPa | 0 mm | - | 477 W/m² | - |
| 1778009157 | 27.22° C | 35% | 1010.7 hPa | 0 mm | - | 633 W/m² | - |
| 1778008854 | 27.22° C | 35% | 1010.7 hPa | 0 mm | - | 636 W/m² | - |
| 1778008552 | 26.67° C | 35% | 1010.8 hPa | 0 mm | - | 648 W/m² | - |
| 1778008250 | 27.22° C | 36% | 1010.8 hPa | 0 mm | - | 629 W/m² | - |
| 1778007945 | 27.22° C | 35% | 1010.9 hPa | 0 mm | - | 680 W/m² | - |
| 1778007641 | 26.67° C | 36% | 1010.9 hPa | 0 mm | - | 701 W/m² | - |
| 1778007338 | 26.11° C | 38% | 1011 hPa | 0 mm | - | 740 W/m² | - |
| 1778007034 | 26.67° C | 35% | 1011 hPa | 0 mm | - | 429 W/m² | - |
| 1778006731 | 26.67° C | 36% | 1011.2 hPa | 0 mm | - | 607 W/m² | - |
| 1778006428 | 26.67° C | 36% | 1011.4 hPa | 0 mm | - | 519 W/m² | - |
| 1778006124 | 26.67° C | 38% | 1011.5 hPa | 0 mm | - | 695 W/m² | - |
* Rain latest hour (hover to see other rain measurements)
** Current wind speed in m/s (hover to see current wind gust speed)